Grand Marais, MN

6:29 AM CDT on May 25, 2017 (GMT -0500)
Grand Marais

Weather History for KGNA - October, 2012

Change the Weather History Date:

Saturday, October 6, 2012

  Actual Average (KCKC) Record (KCKC)
Temperature  
Mean Temperature 40 °F -  
Max Temperature 46 °F 52 °F 73 °F (2004)
Min Temperature 33 °F 35 °F 19 °F (1999)
Degree Days  
Heating Degree Days 26    
Moisture  
Dew Point 26 °F    
Average Humidity 59    
Maximum Humidity 73    
Minimum Humidity 37    
Precipitation  
Precipitation 0.00 in - - ()
Sea Level Pressure  
Sea Level Pressure 30.13 in    
Wind  
Wind Speed 3 mph (NW)    
Max Wind Speed 8 mph    
Max Gust Speed -    
Averages and records for this station are not official NWS values.
T = Trace of Precipitation, MM = Missing Value Source: NWS Daily Summary

Daily Weather History Graph

Daily Weather History Graph

Search for Another Location

Airport or City:

Trip Planner

Search our weather history database for the weather conditions in past years. The results will help you decide how hot, cold, wet, or windy it might be!

Date:

Astronomy

Oct. 06, 2012 Rise Set
Actual Time 7:08 AM CDT 6:29 PM CDT
Civil Twilight 6:37 AM CDT 7:00 PM CDT
Nautical Twilight 6:01 AM CDT 7:36 PM CDT
Astronomical Twilight 5:25 AM CDT 8:12 PM CDT
Moon 10:25 PM CDT (10/6) 1:22 PM CDT (10/6)
Length of Visible Light 12h 23m
Length of Day
11h 21m
Waning Gibbous, 65% of the Moon is Illuminated
Oct 6
Waning Gibbous
Oct 8
Last Quarter
Oct 15
New
Oct 21
First Quarter
Oct 29
Full

Hourly Weather History & Observations

Time (CDT) Temp. Windchill Dew Point Humidity Pressure Visibility Wind Dir Wind Speed Gust Speed Precip Events Conditions
12:56 AM 39.0 °F - 28.0 °F 65% 30.01 in - Calm Calm - N/A   Unknown
1:56 AM 37.9 °F 33.5 °F 28.9 °F 70% 30.02 in - Variable 5.8 mph - N/A   Unknown
2:56 AM 37.9 °F - 28.9 °F 70% 30.04 in - Calm Calm - N/A   Unknown
3:56 AM 37.9 °F 34.4 °F 28.9 °F 70% 30.05 in - Variable 4.6 mph - N/A   Unknown
4:56 AM 37.0 °F - 28.9 °F 73% 30.07 in - Calm Calm - N/A   Unknown
5:56 AM 37.9 °F 34.4 °F 27.0 °F 65% 30.08 in - Variable 4.6 mph - N/A   Unknown
6:56 AM 37.0 °F - 28.0 °F 70% 30.11 in - Calm Calm - N/A   Unknown
7:56 AM 39.0 °F 34.8 °F 27.0 °F 62% 30.13 in - Variable 5.8 mph - N/A   Unknown
8:56 AM 41.0 °F 37.1 °F 28.0 °F 60% 30.15 in - Variable 5.8 mph - N/A   Unknown
9:56 AM 42.1 °F 37.7 °F 30.0 °F 62% 30.16 in - Variable 6.9 mph - N/A   Unknown
10:56 AM 43.0 °F 40.3 °F 26.1 °F 51% 30.17 in - Variable 4.6 mph - N/A   Unknown
11:56 AM 43.0 °F 41.3 °F 25.0 °F 49% 30.18 in - Variable 3.5 mph - N/A   Unknown
12:56 PM 44.1 °F 40.1 °F 27.0 °F 51% 30.18 in - West 6.9 mph - N/A   Unknown
1:56 PM 45.0 °F 41.2 °F 24.1 °F 44% 30.17 in - Variable 6.9 mph - N/A   Unknown
2:56 PM 45.0 °F 40.6 °F 21.9 °F 40% 30.16 in - NNW 8.1 mph - N/A   Unknown
3:56 PM 46.0 °F 43.9 °F 21.0 °F 37% 30.15 in - Variable 4.6 mph - N/A   Unknown
4:56 PM 46.0 °F 43.9 °F 23.0 °F 40% 30.15 in - North 4.6 mph - N/A   Unknown
5:56 PM 45.0 °F 43.5 °F 25.0 °F 46% 30.16 in - Variable 3.5 mph - N/A   Unknown
6:56 PM 39.9 °F 37.8 °F 26.1 °F 58% 30.16 in - NW 3.5 mph - N/A   Unknown
7:56 PM 35.1 °F 32.2 °F 25.0 °F 67% 30.17 in - NW 3.5 mph - N/A   Unknown
8:56 PM 33.1 °F 30.0 °F 25.0 °F 72% 30.16 in - NW 3.5 mph - N/A   Unknown
9:56 PM 37.0 °F 34.5 °F 25.0 °F 62% 30.15 in - WNW 3.5 mph - N/A   Unknown
10:56 PM 37.0 °F 33.3 °F 25.0 °F 62% 30.14 in - NW 4.6 mph - N/A   Unknown
11:56 PM 37.0 °F 31.6 °F 26.1 °F 65% 30.12 in - Variable 6.9 mph - N/A   Unknown